| time (UTC) | temp F | wind direction | speed MPH | gust MPH | rain 1hr in | rain 24hr in | rain mn in | humidity % | barometer mb |
| 20260504120121 | 47 | 163 | 0.0 | 0.0 | 0.00 | 0.00 | 0.00 | 73 | 1015.5 |
| 20260504081545 | 40 | 280 | 0.0 | 0.0 | 0.00 | 0.00 | 0.00 | 79 | 1015.6 |
| 20260504060107 | 42 | 248 | 0.0 | 0.0 | 0.00 | 0.00 | 0.00 | 75 | 1015.8 |
| 20260504050018 | 43 | 249 | 0.0 | 0.0 | 0.00 | 0.00 | 0.00 | 77 | 1015.6 |
| 20260504044600 | 43 | 248 | 0.0 | 0.0 | 0.00 | 0.00 | 0.00 | 76 | 1015.8 |
| 20260504043033 | 43 | 249 | 0.0 | 0.0 | 0.00 | 0.00 | 0.00 | 71 | 1015.5 |
| 20260504041503 | 43 | 248 | 0.0 | 0.0 | 0.00 | 0.00 | 0.00 | 76 | 1015.4 |
| 20260504040046 | 43 | 248 | 0.0 | 1.0 | 0.00 | 0.00 | 0.00 | 74 | 1015.3 |
| 20260504034529 | 43 | 203 | 0.0 | 0.0 | 0.00 | 0.00 | 0.00 | 73 | 1015.3 |
| 20260504033116 | 43 | 203 | 0.0 | 0.0 | 0.00 | 0.00 | 0.00 | 73 | 1015.3 |
| 20260504031533 | 44 | 184 | 0.0 | 0.0 | 0.00 | 0.00 | 0.00 | 72 | 1015.2 |
| 20260504030010 | 44 | 183 | 0.0 | 0.0 | 0.00 | 0.00 | 0.00 | 71 | 1015.1 |
| 20260504024600 | 45 | 183 | 0.0 | 0.0 | 0.00 | 0.00 | 0.00 | 67 | 1015.2 |
| 20260504023022 | 45 | 183 | 0.0 | 0.0 | 0.00 | 0.00 | 0.00 | 65 | 1015.2 |
| 20260504021600 | 45 | 218 | 0.0 | 0.0 | 0.00 | 0.00 | 0.00 | 68 | 1015.2 |
| 20260504020023 | 47 | 218 | 0.0 | 0.0 | 0.00 | 0.00 | 0.00 | 60 | 1015.1 |
| 20260504014600 | 47 | 218 | 0.0 | 0.0 | 0.00 | 0.00 | 0.00 | 67 | 1015.0 |
| 20260504013029 | 47 | 218 | 0.0 | 0.0 | 0.00 | 0.00 | 0.00 | 57 | 1014.9 |
| 20260504011501 | 48 | 218 | 0.0 | 0.0 | 0.00 | 0.00 | 0.00 | 55 | 1014.8 |
| 20260504010042 | 49 | 219 | 0.0 | 0.0 | 0.00 | 0.00 | 0.00 | 57 | 1014.7 |
| 20260504004532 | 49 | 291 | 0.0 | 2.0 | 0.00 | 0.00 | 0.00 | 54 | 1014.5 |
| 20260504003054 | 51 | 242 | 0.0 | 0.0 | 0.00 | 0.00 | 0.00 | 49 | 1014.4 |
| 20260504001520 | 52 | 127 | 0.0 | 0.0 | 0.00 | 0.00 | 0.00 | 46 | 1014.1 |
| 20260503234529 | 53 | 222 | 0.0 | 0.0 | 0.00 | 0.00 | 0.00 | 44 | 1013.9 |
| 20260503233001 | 54 | 219 | 0.0 | 4.0 | 0.00 | 0.00 | 0.00 | 43 | 1013.9 |
| 20260503231551 | 54 | 91 | 0.0 | 4.0 | 0.00 | 0.00 | 0.00 | 44 | 1013.9 |
| 20260503230017 | 55 | 121 | 1.0 | 7.0 | 0.00 | 0.00 | 0.00 | 41 | 1013.7 |
| 20260503224559 | 56 | 314 | 1.0 | 5.0 | 0.00 | 0.00 | 0.00 | 40 | 1013.5 |
| 20260503223028 | 56 | 228 | 1.0 | 9.0 | 0.00 | 0.00 | 0.00 | 38 | 1013.5 |
| 20260503221605 | 56 | 335 | 0.0 | 7.0 | 0.00 | 0.00 | 0.00 | 36 | 1013.6 |
| 20260503220038 | 56 | 184 | 2.0 | 9.0 | 0.00 | 0.00 | 0.00 | 37 | 1013.7 |
| 20260503214611 | 56 | 104 | 1.0 | 5.0 | 0.00 | 0.00 | 0.00 | 36 | 1013.6 |
| 20260503213044 | 56 | 114 | 2.0 | 5.0 | 0.00 | 0.00 | 0.00 | 36 | 1013.6 |
| 20260503211514 | 57 | 288 | 2.0 | 12.0 | 0.00 | 0.00 | 0.00 | 35 | 1013.5 |
| 20260503210057 | 56 | 158 | 3.0 | 10.0 | 0.00 | 0.00 | 0.00 | 36 | 1013.4 |
| 20260503204523 | 56 | 18 | 2.0 | 7.0 | 0.00 | 0.00 | 0.00 | 33 | 1013.4 |
| 20260503203107 | 57 | 307 | 3.0 | 9.0 | 0.00 | 0.00 | 0.00 | 37 | 1013.7 |
| 20260503201536 | 55 | 146 | 1.0 | 9.0 | 0.00 | 0.00 | 0.00 | 39 | 1013.9 |
| 20260503200006 | 56 | 350 | 3.0 | 11.0 | 0.00 | 0.00 | 0.00 | 37 | 1014.0 |
| 20260503194543 | 55 | 285 | 2.0 | 17.0 | 0.00 | 0.00 | 0.00 | 40 | 1014.1 |
| 20260503193016 | 55 | 59 | 3.0 | 11.0 | 0.00 | 0.00 | 0.00 | 39 | 1014.1 |
| 20260503191550 | 55 | 143 | 1.0 | 11.0 | 0.00 | 0.00 | 0.00 | 37 | 1014.3 |
| 20260503190100 | 55 | 158 | 3.0 | 8.0 | 0.00 | 0.00 | 0.00 | 34 | 1014.4 |
| 20260503184522 | 55 | 229 | 3.0 | 11.0 | 0.00 | 0.00 | 0.00 | 38 | 1014.3 |
| 20260503183103 | 54 | 146 | 1.0 | 10.0 | 0.00 | 0.00 | 0.00 | 40 | 1014.6 |
| 20260503181528 | 53 | 345 | 4.0 | 12.0 | 0.00 | 0.00 | 0.00 | 38 | 1014.6 |
| 20260503180108 | 54 | 121 | 1.0 | 12.0 | 0.00 | 0.00 | 0.00 | 36 | 1014.7 |
| 20260503174545 | 54 | 138 | 3.0 | 11.0 | 0.00 | 0.00 | 0.00 | 35 | 1014.7 |
| 20260503173007 | 53 | 138 | 2.0 | 15.0 | 0.00 | 0.00 | 0.00 | 36 | 1014.8 |
| 20260503171542 | 53 | 280 | 3.0 | 14.0 | 0.00 | 0.00 | 0.00 | 36 | 1014.9 |